Total_Precipitation_Accumulation
0.00 0.00 0.01 0.01 0.04 0.08 0.09 0.12 0.15 0.16 0.18 0.25 0.36 0.58 0.79 0.90 1.09 1.22 1.19 1.33 1.73 2.13 2.43 2.71 2.86 3.08 3.40 3.69 3.95 4.22 4.59 4.68 4.42 4.33 4.27 4.14 3.82 3.67 3.34 2.96 2.61 2.49 2.48 2.62
0.00 0.01 0.01 0.01 0.02 0.05 0.06 0.08 0.14 0.16 0.20 0.28 0.32 0.54 0.75 0.78 0.98 1.12 1.22 1.40 1.57 1.78 2.26 2.53 2.55 2.79 3.02 3.52 4.00 4.32 4.31 4.18 3.91 4.00 4.28 4.49 4.45 3.97 3.38 3.02 2.87 2.50 2.39 2.46
0.01 0.02 0.01 0.01 0.01 0.02 0.07 0.10 0.15 0.17 0.20 0.32 0.41 0.83 0.96 0.86 0.95 1.05 1.14 1.31 1.45 1.62 1.82 2.14 2.17 2.26 2.47 2.95 3.45 3.57 3.42 3.34 3.19 3.25 3.57 3.79 4.01 3.75 3.38 3.06 2.79 2.50 2.38 2.31
0.01 0.02 0.01 0.02 0.02 0.02 0.06 0.06 0.07 0.13 0.25 0.44 0.49 0.95 1.19 1.19 1.24 1.10 1.13 1.19 1.45 1.61 1.66 1.82 1.88 1.93 1.97 2.09 2.33 2.50 2.67 2.74 2.74 2.79 2.97 3.18 3.33 3.26 3.09 2.98 2.71 2.45 2.20 2.10
0.02 0.02 0.02 0.03 0.04 0.03 0.05 0.05 0.06 0.12 0.22 0.43 0.48 0.68 1.15 1.42 1.43 1.18 1.14 1.15 1.29 1.31 1.39 1.53 1.61 1.61 1.66 1.80 2.00 2.20 2.48 2.62 2.68 2.65 2.75 2.95 3.21 3.17 2.90 2.68 2.60 2.41 2.20 1.98
0.03 0.04 0.05 0.04 0.04 0.04 0.05 0.07 0.13 0.19 0.30 0.70 0.61 0.68 1.09 1.31 1.16 1.12 1.04 0.98 1.05 1.04 1.18 1.38 1.48 1.53 1.55 1.62 1.84 2.04 2.23 2.23 2.30 2.38 2.42 2.44 2.54 2.62 2.48 2.35 2.28 2.12 1.95 1.80
0.12 0.11 0.09 0.05 0.05 0.06 0.08 0.14 0.49 0.89 1.08 1.04 0.64 0.73 1.19 1.09 0.92 0.93 0.94 0.96 1.03 1.02 1.01 1.18 1.35 1.35 1.47 1.56 1.66 1.78 1.88 1.94 1.94 2.01 1.97 1.93 2.00 2.14 2.11 2.02 2.01 1.93 1.73 1.57
0.21 0.24 0.16 0.09 0.08 0.09 0.13 0.22 0.64 0.91 0.92 0.91 0.76 1.14 1.35 0.95 0.86 0.83 0.75 0.76 0.79 0.76 0.73 0.83 0.99 1.08 1.20 1.34 1.42 1.51 1.55 1.70 1.82 1.89 1.92 1.88 1.84 1.90 1.96 2.01 1.88 1.79 1.55 1.41
0.14 0.16 0.11 0.08 0.07 0.11 0.21 0.28 0.31 0.51 0.62 0.96 1.15 1.36 1.20 0.92 0.87 0.80 0.82 0.79 0.77 0.72 0.68 0.69 0.77 0.86 0.89 1.00 1.12 1.19 1.29 1.47 1.63 1.65 1.79 1.77 1.65 1.72 1.87 1.94 1.87 1.79 1.74 1.62
0.07 0.09 0.11 0.08 0.10 0.15 0.17 0.21 0.28 0.43 0.66 0.97 1.17 1.46 1.62 1.41 1.20 1.02 1.05 0.94 0.83 0.70 0.64 0.64 0.63 0.64 0.63 0.74 0.98 1.09 1.25 1.41 1.44 1.43 1.41 1.35 1.40 1.56 1.70 1.69 1.64 1.75 1.82 1.83
0.07 0.07 0.10 0.13 0.14 0.16 0.19 0.22 0.29 0.37 0.45 0.75 1.16 1.33 1.12 1.19 1.16 1.15 1.01 0.93 0.88 0.76 0.62 0.60 0.66 0.67 0.65 0.70 0.92 0.96 1.04 1.23 1.28 1.25 1.16 1.14 1.19 1.29 1.37 1.41 1.43 1.59 1.66 1.74
0.08 0.09 0.15 0.20 0.17 0.15 0.18 0.21 0.31 0.48 0.51 0.61 0.92 1.14 0.81 0.88 0.88 0.80 0.76 0.75 0.66 0.63 0.56 0.55 0.64 0.75 0.84 0.91 0.92 0.85 0.87 0.93 1.07 1.10 1.06 1.07 1.07 1.06 1.05 1.08 1.18 1.29 1.39 1.43
0.11 0.15 0.28 0.49 0.49 0.30 0.24 0.20 0.24 0.32 0.41 0.48 0.75 1.05 0.88 0.84 0.89 0.83 0.80 0.79 0.68 0.62 0.58 0.62 0.71 0.73 0.75 0.88 0.99 0.88 0.86 0.92 1.03 1.04 1.05 1.08 1.06 1.01 0.95 0.98 1.06 1.08 1.09 1.13
0.10 0.12 0.24 0.48 0.44 0.34 0.30 0.27 0.28 0.33 0.43 0.46 0.52 0.80 0.93 0.94 0.91 0.87 0.82 0.75 0.72 0.66 0.56 0.59 0.69 0.82 0.80 0.79 0.89 0.85 0.84 0.89 0.98 1.11 1.24 1.21 1.13 1.08 1.03 0.99 1.02 1.04 1.00 1.06
0.10 0.10 0.12 0.17 0.23 0.30 0.32 0.27 0.26 0.27 0.31 0.46 0.44 0.57 0.82 0.91 0.83 0.85 0.85 0.65 0.58 0.66 0.61 0.56 0.64 0.80 0.84 0.84 0.85 0.82 0.86 0.88 0.95 1.14 1.25 1.26 1.23 1.19 1.16 1.09 1.06 1.05 1.09 1.10
0.18 0.17 0.19 0.19 0.26 0.31 0.32 0.28 0.22 0.20 0.20 0.27 0.34 0.54 0.64 0.61 0.68 0.72 0.68 0.64 0.65 0.75 0.70 0.63 0.61 0.65 0.76 0.84 0.90 0.93 0.96 0.94 0.93 0.97 1.05 1.17 1.28 1.29 1.24 1.10 1.06 1.13 1.17 1.15
0.32 0.33 0.29 0.30 0.30 0.36 0.41 0.32 0.26 0.23 0.20 0.26 0.45 0.66 0.65 0.62 0.69 0.64 0.55 0.55 0.66 0.67 0.61 0.60 0.62 0.65 0.71 0.75 0.82 0.98 0.96 0.87 0.88 0.97 1.05 1.17 1.24 1.23 1.18 1.07 1.08 1.12 1.12 1.15
0.31 0.39 0.39 0.40 0.50 0.64 0.43 0.26 0.25 0.28 0.25 0.23 0.34 0.47 0.55 0.52 0.56 0.57 0.52 0.50 0.50 0.51 0.50 0.50 0.58 0.66 0.69 0.66 0.63 0.69 0.77 0.80 0.82 0.91 1.02 1.11 1.17 1.24 1.28 1.24 1.17 1.21 1.22 1.18
0.29 0.43 0.47 0.52 0.66 0.56 0.37 0.32 0.35 0.38 0.41 0.33 0.37 0.44 0.54 0.57 0.57 0.66 0.57 0.52 0.48 0.44 0.45 0.54 0.64 0.64 0.63 0.63 0.60 0.65 0.78 0.86 0.92 0.95 1.05 1.08 1.16 1.32 1.38 1.30 1.27 1.31 1.28 1.20
0.35 0.43 0.58 0.63 0.80 0.75 0.57 0.41 0.37 0.47 0.83 0.58 0.46 0.47 0.57 0.63 0.71 0.80 0.63 0.57 0.52 0.48 0.46 0.48 0.50 0.48 0.52 0.63 0.72 0.81 0.95 1.09 1.11 1.06 1.09 1.17 1.24 1.35 1.45 1.48 1.48 1.44 1.40 1.33
0.73 0.67 0.62 0.72 0.87 0.76 0.56 0.45 0.51 0.88 1.10 0.75 0.63 0.59 0.64 0.74 0.72 0.69 0.63 0.54 0.52 0.53 0.52 0.52 0.55 0.56 0.60 0.65 0.84 1.04 1.11 1.16 1.18 1.16 1.17 1.27 1.36 1.49 1.65 1.80 1.75 1.70 1.65 1.63
0.94 0.97 0.92 0.96 1.12 1.12 0.68 0.57 0.85 1.06 0.86 0.79 0.78 0.75 0.72 0.64 0.58 0.57 0.61 0.56 0.51 0.51 0.57 0.63 0.72 0.75 0.68 0.70 0.83 1.01 1.09 1.14 1.26 1.29 1.34 1.38 1.50 1.54 1.67 2.01 2.00 2.01 2.00 1.87
1.04 1.15 1.24 1.23 1.24 1.01 0.90 0.95 0.98 1.03 0.91 0.85 0.71 0.64 0.61 0.61 0.59 0.63 0.71 0.69 0.58 0.53 0.59 0.64 0.74 0.81 0.85 0.91 1.00 1.16 1.21 1.28 1.36 1.47 1.58 1.63 1.66 1.77 1.86 1.99 2.03 2.07 2.05 1.94
1.02 0.95 1.25 1.40 1.29 1.17 1.04 0.96 1.01 1.16 1.04 0.85 0.70 0.65 0.64 0.63 0.57 0.53 0.57 0.62 0.60 0.57 0.63 0.70 0.75 0.95 1.08 1.12 1.18 1.25 1.33 1.45 1.59 1.73 1.83 1.90 1.91 1.89 1.93 2.07 2.06 2.05 2.06 1.98
0.92 0.95 1.27 1.51 1.46 1.44 1.25 0.97 0.91 0.94 0.88 0.74 0.74 0.71 0.71 0.72 0.64 0.55 0.52 0.54 0.59 0.67 0.74 0.80 0.89 1.03 1.11 1.21 1.32 1.42 1.56 1.73 1.82 1.84 1.86 1.86 1.92 2.05 2.12 2.08 2.05 2.08 2.12 2.08
1.05 1.05 1.33 1.62 1.43 1.40 1.33 1.07 0.92 0.81 0.72 0.68 0.81 0.86 0.76 0.74 0.73 0.67 0.60 0.60 0.63 0.70 0.81 0.91 1.00 1.11 1.19 1.34 1.53 1.64 1.78 1.98 2.14 2.09 2.01 2.00 2.01 2.10 2.14 2.10 2.02 2.03 1.98 1.91